EHI
0 0 0 0 0 0 0 0 0 0 0 0 0 0 0 0 1 3 4 4 4 6 5 2 4 8 16 29 40 44 41 37 32 25 18 14 11 8 5 2 1 0 0 0 0 0 0 0 0
0 0 0 0 0 0 0 0 0 0 0 0 1 1 1 0 1 5 8 6 4 5 4 2 3 7 15 27 38 42 42 39 35 29 22 15 10 7 4 1 0 0 0 0 0 0 0 0 0
0 0 0 0 0 0 0 0 0 0 1 1 2 2 2 2 3 8 9 7 4 4 3 4 4 7 12 22 34 39 40 39 36 31 25 17 10 4 2 1 0 0 0 0 0 0 0 0 0
0 0 0 0 0 1 1 0 0 1 2 3 3 3 5 6 7 10 10 6 5 4 3 5 6 6 9 15 25 33 36 36 34 31 27 21 13 5 2 1 1 1 0 0 0 0 0 0 0
0 0 0 0 0 2 2 1 1 1 3 4 4 5 9 13 15 15 13 9 6 4 5 7 7 6 7 9 14 24 31 33 33 32 30 25 16 8 4 3 2 1 1 0 0 0 0 0 0
0 0 0 0 1 3 3 2 2 2 3 3 4 8 16 23 24 21 17 12 7 5 6 8 7 6 6 6 8 15 25 31 33 34 31 24 16 9 5 3 2 3 2 1 0 0 0 0 0
0 0 0 0 2 3 3 2 2 2 1 2 4 10 24 34 32 25 20 14 9 7 7 7 6 5 5 6 7 12 21 29 33 33 27 20 12 8 6 3 2 3 3 2 1 0 1 0 0
0 0 0 0 1 2 2 2 1 1 1 3 5 11 28 43 42 33 26 18 12 9 7 6 4 3 3 5 7 12 18 23 25 24 20 14 8 6 5 5 5 4 3 2 2 1 1 0 0
0 0 0 0 0 1 1 2 1 1 2 6 10 19 37 52 50 40 31 24 18 11 7 5 4 3 2 5 9 12 13 13 14 14 13 8 4 3 4 8 11 7 3 3 3 3 2 1 0
0 0 0 0 0 1 2 2 1 1 3 7 15 32 50 57 51 39 31 25 20 14 7 5 5 4 4 6 11 13 10 8 8 8 9 7 4 4 7 14 14 7 2 2 3 3 2 1 0
0 1 1 1 1 2 3 3 2 2 3 6 17 39 54 55 44 32 24 20 17 15 10 6 5 5 4 7 10 12 10 9 7 6 7 8 8 8 13 16 12 6 3 3 3 3 2 1 0
0 1 2 2 1 2 3 4 5 5 5 8 19 37 49 46 35 25 19 17 16 18 16 10 8 7 7 8 10 10 10 10 9 7 6 8 10 12 15 17 13 9 7 6 6 6 4 2 1
1 1 1 2 3 4 5 7 9 10 11 14 22 34 41 38 29 22 20 20 21 22 21 16 14 14 12 11 11 9 8 10 11 11 9 9 12 12 14 18 16 12 10 10 10 9 7 6 5
2 2 2 2 3 4 5 8 11 13 15 18 24 32 34 31 26 22 21 23 24 23 21 19 20 20 16 14 12 10 10 11 12 13 11 10 11 12 13 15 14 10 9 11 11 10 9 10 10
1 3 4 4 3 2 4 7 10 13 15 17 23 30 31 27 23 21 22 23 24 23 20 19 21 22 20 17 15 13 12 11 10 9 8 7 8 9 10 9 9 8 8 8 9 10 11 11 11
0 2 3 3 2 1 2 5 9 11 12 15 22 28 28 24 20 20 21 22 24 24 23 21 21 23 23 20 18 15 11 8 6 5 4 3 4 6 7 7 7 8 8 7 8 10 12 11 11
0 0 2 2 1 0 1 5 8 10 11 15 21 24 24 21 19 20 21 22 23 24 25 25 24 25 24 21 16 11 7 5 4 4 3 3 3 3 4 5 7 8 8 7 8 10 12 13 13
0 0 1 1 1 0 1 4 8 10 11 14 17 19 19 18 18 20 23 24 23 24 25 26 26 26 25 20 13 7 5 4 4 4 4 3 3 3 3 3 5 7 8 8 7 8 10 12 12
0 0 1 1 0 0 1 2 6 9 10 10 12 14 15 16 16 19 23 24 23 23 25 25 24 25 23 18 11 7 4 5 5 4 3 3 2 2 3 3 4 5 7 7 5 5 6 7 7
0 0 1 0 0 0 0 1 4 8 8 8 9 13 15 15 15 18 20 22 23 22 23 22 21 21 20 15 10 7 6 7 6 5 4 3 3 3 4 4 4 4 5 5 5 5 3 2 3
0 0 0 0 0 0 0 1 3 6 7 7 9 13 16 16 16 18 20 22 23 21 21 20 18 19 18 15 10 8 8 8 7 6 5 4 4 4 4 4 4 5 4 5 7 7 4 2 2
0 0 0 0 0 0 0 0 2 4 6 7 8 13 18 18 18 19 20 22 21 18 18 19 18 18 18 16 13 11 9 7 7 7 7 5 4 3 3 2 3 4 5 6 7 6 4 4 3
0 0 0 0 0 0 0 0 1 3 4 6 8 14 20 21 18 16 17 18 18 16 18 20 19 19 18 17 16 13 9 8 8 9 9 7 5 3 2 1 2 2 3 4 4 4 4 4 4
0 0 0 0 0 0 0 0 0 1 2 5 9 16 21 20 16 13 13 14 16 18 20 20 20 20 18 17 15 13 11 11 12 12 9 7 6 4 3 2 2 2 2 3 3 3 4 4 4
0 0 0 0 0 0 0 0 1 2 4 7 12 17 19 17 14 12 12 13 17 20 21 20 19 19 17 15 14 13 12 12 13 12 9 7 7 6 5 3 3 4 4 3 3 4 5 4 4
0 0 0 0 0 0 0 0 2 5 6 8 13 16 15 13 13 13 14 15 19 20 19 18 18 17 14 12 12 11 10 11 11 10 7 7 8 6 4 3 3 3 3 2 2 3 4 5 5
0 0 0 0 0 0 0 0 2 4 6 8 12 13 12 11 13 13 14 16 18 18 16 15 15 13 10 9 9 8 7 7 8 6 4 5 6 4 2 1 1 1 1 0 1 1 2 3 4
0 0 0 0 0 0 0 0 1 3 5 6 8 9 10 11 12 12 12 14 16 15 12 10 10 9 7 7 7 6 5 4 4 3 2 3 3 2 0 0 0 0 0 0 0 0 0 1 2
0 0 0 0 0 0 0 0 1 4 8 8 7 6 8 9 9 8 9 11 12 12 9 6 6 6 6 6 6 5 3 2 2 2 1 1 1 0 0 0 0 0 0 0 0 0 0 0 1
0 0 0 0 0 0 0 0 2 6 11 12 7 5 6 7 6 5 6 7 9 9 7 5 4 5 6 6 6 5 2 1 1 1 1 0 0 0 0 0 0 0 0 0 0 0 0 0 0
Wind_Speed
9 7 7 6 8 7 5 4 3 5 4 5 5 3 3 5 5 7 8 12 13 14 15 14 10 10 11 11 12 13 13 13 13 13 12 12 11 10 9 9 8 7 7 7 7 6 6 6 6
6 6 7 7 9 8 6 5 5 5 6 7 7 4 5 7 8 9 10 12 14 14 14 13 12 11 11 12 12 12 13 13 13 12 12 11 10 10 9 8 7 7 6 6 6 6 6 6 5
6 7 7 7 8 6 6 6 7 7 7 6 6 4 5 6 6 8 10 14 14 13 13 14 12 11 11 12 12 12 12 12 12 12 11 10 9 8 8 8 7 7 6 6 6 6 5 5 5
6 7 7 9 8 2 3 6 7 8 7 5 6 7 7 6 4 9 14 15 14 14 14 15 11 12 11 11 12 12 12 11 11 11 10 10 9 8 7 7 7 6 6 6 6 5 5 4 4
7 7 9 9 7 5 4 3 5 7 6 6 5 7 8 6 8 13 14 14 13 13 13 15 11 11 11 11 11 11 11 10 10 10 9 8 7 7 6 7 6 6 5 5 5 4 4 4 4
7 7 9 10 9 6 5 4 5 6 7 7 6 8 8 6 11 13 13 12 12 12 12 14 13 12 11 11 11 10 10 9 9 8 8 7 6 6 6 5 5 5 5 5 5 4 4 3 3
8 8 8 8 9 8 5 4 6 7 7 6 5 7 9 8 10 12 12 11 11 11 11 11 11 11 11 10 10 9 9 9 8 8 7 7 6 5 4 4 4 4 4 4 4 4 4 3 3
6 6 8 8 9 8 7 6 5 5 7 6 4 6 9 11 11 11 11 10 10 10 9 9 9 9 9 10 10 9 8 8 8 7 7 6 6 6 5 6 5 4 3 3 3 4 4 4 3
6 8 8 7 7 8 9 9 6 4 8 6 4 5 11 15 13 12 11 10 9 8 8 8 8 8 8 9 9 9 8 7 7 8 7 7 6 6 7 4 5 4 4 3 3 3 3 4 6
7 7 5 3 3 5 8 8 8 8 10 9 9 10 15 15 14 13 12 11 10 9 8 7 7 7 6 5 6 5 6 6 5 4 6 5 3 2 3 6 4 4 4 5 5 4 5 8 6
4 2 4 3 3 4 7 8 7 8 8 8 11 15 16 15 12 11 10 10 10 9 7 6 5 5 4 4 4 3 2 3 4 3 3 2 2 2 3 2 4 5 6 5 5 7 6 5 3
4 3 1 3 4 5 7 8 7 3 3 5 9 15 15 14 12 11 10 9 8 8 7 6 6 5 3 3 3 3 2 2 2 2 3 2 2 2 2 2 2 3 3 3 3 3 4 4 4
5 4 4 3 4 5 6 7 6 6 5 7 11 14 14 13 11 10 8 8 8 7 7 6 6 5 3 2 1 2 2 1 2 1 2 3 2 2 2 2 2 3 3 3 3 4 3 4 4
4 5 5 5 6 6 7 7 6 7 8 10 13 13 12 11 10 9 8 8 7 7 6 6 5 5 4 3 2 1 1 1 1 1 1 2 2 2 2 2 2 3 3 3 3 4 3 3 3
5 7 8 6 6 6 6 7 6 8 9 10 11 11 11 10 9 8 7 6 6 6 6 5 5 5 4 3 2 1 1 1 0 0 0 1 2 2 2 2 2 2 2 3 4 4 3 4 3
8 9 8 7 5 5 8 7 9 9 10 10 10 10 9 9 8 7 7 6 6 5 5 5 4 5 4 3 2 1 1 1 1 1 1 0 1 2 2 2 2 2 2 2 3 4 3 3 3
10 9 8 9 6 6 7 5 8 8 9 10 10 9 9 8 8 7 6 6 5 5 5 5 4 4 3 3 2 2 2 2 1 1 1 1 1 2 2 2 2 3 2 2 3 2 3 3 2
8 8 8 7 7 7 7 5 8 9 9 9 9 9 9 9 7 7 6 5 5 5 4 4 4 4 3 3 2 2 2 2 1 1 2 1 1 2 3 1 1 2 2 2 2 3 2 2 1
4 6 7 5 4 6 6 5 7 9 9 9 9 10 9 8 7 7 6 5 5 5 4 4 4 4 3 3 2 2 2 2 2 2 2 2 1 1 2 2 1 2 2 2 3 3 3 2 1
6 7 6 6 4 4 4 5 7 8 10 9 10 10 9 8 8 7 7 6 5 5 4 4 4 3 3 2 1 1 1 1 2 2 2 2 1 1 1 2 2 2 2 2 2 2 3 2 1
7 6 5 4 5 5 5 7 8 8 8 8 9 9 9 9 9 9 8 6 5 4 4 3 3 3 2 2 2 2 2 1 2 1 2 2 2 2 2 2 3 2 3 2 3 2 3 3 2
7 4 4 6 8 6 7 7 8 9 9 9 9 9 10 9 9 8 7 6 5 5 4 4 3 3 2 2 3 3 2 1 1 1 2 2 2 2 2 2 3 3 3 3 3 2 3 4 3
2 1 5 7 8 7 8 9 4 8 9 10 9 9 8 9 9 8 7 6 5 4 4 4 4 3 2 2 3 2 1 1 1 1 2 1 2 2 3 3 3 3 2 3 3 3 4 3 3
2 4 5 8 9 10 7 8 5 5 6 6 7 8 8 8 8 8 7 6 5 4 4 4 4 4 3 3 3 2 2 2 1 1 1 0 1 1 3 2 2 3 2 2 2 3 3 3 3
7 7 6 8 8 6 3 6 2 2 1 2 4 6 8 8 8 8 8 8 6 5 5 5 5 4 4 4 3 3 2 2 1 0 1 2 1 2 2 2 2 2 2 3 3 2 3 3 3
7 9 8 7 7 4 5 6 2 4 2 1 3 6 7 8 8 8 8 7 7 6 6 5 5 5 4 4 4 3 2 1 2 2 2 2 2 2 3 2 2 2 2 3 3 2 2 2 3
7 8 6 8 9 9 5 3 4 4 3 3 5 6 7 7 7 7 7 7 7 7 6 6 6 5 4 4 4 3 3 2 2 1 1 2 2 2 2 3 3 3 3 3 3 2 3 3 3
6 5 5 8 8 9 7 7 3 5 4 5 5 5 6 7 7 7 7 7 7 7 6 6 5 5 4 4 3 3 2 2 2 2 3 3 3 3 3 3 3 3 3 3 3 2 3 2 2
5 5 7 8 8 9 8 2 4 2 3 4 4 5 6 7 8 7 7 7 7 7 7 6 5 5 4 4 3 2 2 2 2 2 2 2 2 2 2 3 3 3 3 3 3 3 3 2 2
6 6 7 8 7 9 9 1 4 2 3 5 5 6 6 7 7 7 7 7 7 6 6 5 4 4 4 3 3 2 2 2 2 2 2 1 1 2 2 3 3 3 3 3 3 3 3 3 3
Wind_Direction
232 221 222 229 231 226 201 143 142 131 122 109 118 117 84 47 19 71 112 139 137 137 135 143 137 136 132 131 131 133 135 137 139 140 141 142 143 144 143 141 139 137 136 133 131 130 128 126 126
227 211 222 232 239 208 171 148 150 109 107 123 122 115 102 77 60 100 132 137 142 137 140 144 137 138 135 133 132 133 136 139 140 141 142 144 146 146 146 145 144 143 143 142 140 137 133 133 134
214 228 236 225 233 223 152 137 120 110 129 144 127 92 63 71 95 120 133 144 142 139 140 131 143 141 139 137 135 135 137 139 140 142 144 146 148 149 150 152 151 152 152 151 149 145 143 146 146
209 210 227 232 206 197 117 128 136 137 137 139 134 109 86 59 98 123 137 147 143 142 139 135 147 143 141 140 138 137 139 140 141 144 145 147 149 152 155 157 156 158 160 159 157 156 157 161 163
230 223 211 211 189 157 136 136 170 162 150 139 142 113 93 68 101 123 141 144 143 142 138 139 147 145 144 143 141 140 140 141 140 142 144 147 150 154 156 158 158 162 164 166 165 166 168 173 181
213 222 213 195 170 159 152 164 184 171 148 139 140 118 90 102 120 133 139 144 141 139 136 137 148 151 150 147 145 143 141 140 140 141 142 143 146 149 155 161 163 167 171 173 174 178 186 191 192
233 221 214 186 165 162 145 161 179 163 151 138 142 123 117 126 129 136 138 139 137 139 136 143 151 154 154 149 148 146 143 142 140 140 142 145 148 155 163 169 170 170 174 179 183 189 190 195 198
260 229 196 186 176 149 142 150 147 156 128 115 147 145 138 140 139 138 138 137 138 139 139 146 152 152 158 158 154 151 148 146 147 149 154 157 164 175 178 194 179 187 191 195 198 203 198 201 210
246 229 189 177 170 144 151 152 132 134 130 125 99 91 120 136 143 143 142 140 137 138 143 150 151 155 164 159 151 160 158 157 167 168 168 187 197 188 188 183 150 191 205 212 211 214 214 218 204
234 217 152 132 138 146 153 158 148 163 153 140 123 111 126 142 150 153 155 152 149 150 152 155 153 157 164 152 151 171 174 165 191 178 183 206 209 222 231 125 171 208 219 222 221 232 233 240 222
224 181 116 132 117 149 153 152 162 176 169 162 152 143 145 149 153 157 159 156 154 153 154 152 153 157 160 152 158 168 176 165 188 184 199 219 221 220 233 193 189 209 216 223 199 218 233 240 253
177 119 131 115 123 160 153 152 156 163 122 126 144 147 151 156 158 160 158 154 152 153 152 149 152 152 163 158 158 168 176 176 186 174 215 216 222 241 249 244 241 234 233 242 245 243 241 257 257
171 134 134 139 149 139 149 148 140 126 115 133 140 150 156 156 154 153 153 152 154 156 154 155 152 148 153 159 186 169 181 192 183 197 212 243 236 244 249 255 262 267 266 245 248 255 256 258 255
140 140 143 145 137 149 151 141 146 120 131 140 147 154 154 153 154 152 155 158 158 155 155 153 153 151 157 167 185 185 185 186 222 185 217 254 259 263 263 260 266 271 274 285 275 264 261 257 258
162 159 149 147 153 152 163 154 137 130 143 147 150 149 152 154 154 153 154 156 152 151 151 153 153 154 160 168 174 162 128 124 144 156 195 264 285 292 277 269 262 275 279 272 266 265 259 247 239
182 187 167 143 162 171 217 165 131 147 154 154 153 154 155 152 152 146 145 149 147 148 150 155 154 148 152 145 136 120 112 112 77 63 69 29 335 300 283 287 284 284 269 268 268 264 264 261 257
192 190 161 147 170 183 224 158 141 165 173 166 162 161 161 156 154 147 148 150 148 147 149 144 137 137 133 126 125 127 118 97 76 65 54 41 1 322 302 303 312 282 274 274 280 283 277 269 257
177 176 171 165 161 203 212 174 156 175 190 182 170 169 171 169 159 149 144 143 141 137 139 137 134 131 137 142 145 143 119 108 91 76 59 34 2 336 313 297 319 291 284 292 304 302 288 279 263
192 197 177 147 151 214 211 196 179 178 194 192 185 181 177 169 154 146 145 148 144 143 143 147 149 151 166 169 175 169 146 135 114 88 61 40 10 351 321 322 322 304 316 316 303 287 277 267 229
211 207 178 150 143 231 219 214 189 192 201 201 198 189 179 171 163 158 160 160 158 156 152 160 156 161 186 173 165 149 112 99 82 76 77 53 44 4 358 354 334 345 318 313 310 296 287 281 255
212 224 202 178 170 208 219 214 192 192 204 205 206 197 188 185 176 168 170 170 162 156 151 144 139 154 163 164 156 137 145 147 115 107 97 68 54 50 19 11 2 349 329 344 324 305 286 288 269
215 206 213 198 217 214 224 247 184 188 196 205 205 200 196 187 179 171 170 168 165 159 147 133 136 138 145 164 161 171 164 141 94 52 66 68 65 52 39 25 13 349 342 345 321 335 295 282 280
280 183 218 224 241 247 226 254 199 180 208 210 205 201 195 181 176 168 166 160 156 152 142 134 125 121 123 128 135 148 130 113 107 100 91 51 71 55 41 24 3 344 347 359 342 326 304 292 293
182 186 201 225 238 241 233 252 235 187 226 219 200 192 181 168 163 158 159 153 145 146 142 132 122 118 116 121 121 121 111 105 100 90 75 22 49 42 43 23 357 339 348 349 325 309 306 309 302
215 228 227 226 228 241 172 243 256 89 326 248 187 169 162 157 159 159 158 155 148 146 139 130 124 117 115 116 108 105 106 128 128 59 56 358 17 24 27 360 338 344 342 337 326 313 316 304 296
231 250 264 273 267 249 196 236 103 83 79 123 143 140 142 149 153 156 157 153 148 146 143 139 132 119 114 111 104 99 106 98 72 42 16 14 6 22 8 346 342 349 347 336 328 316 320 315 304
238 245 293 281 272 269 237 214 164 149 145 137 129 131 133 140 145 148 149 148 146 147 144 137 129 117 112 108 108 105 98 78 68 62 15 31 16 17 10 357 356 357 355 344 329 348 343 343 333
276 270 253 258 267 266 248 237 218 172 172 156 146 136 130 135 139 141 143 141 141 142 140 140 132 126 123 118 108 99 96 90 87 57 42 26 17 17 10 13 4 357 358 349 336 346 9 0 359
229 232 258 268 276 279 271 266 59 118 160 160 149 139 137 140 140 140 141 142 144 141 140 140 136 132 127 116 108 103 93 90 99 80 58 35 13 2 3 2 355 354 357 0 351 358 3 353 348
261 266 262 268 267 268 281 307 87 128 144 145 141 135 135 136 140 143 141 142 142 143 143 142 141 137 133 122 119 113 107 102 87 77 62 43 14 354 5 355 350 354 2 358 346 355 7 357 347